Wind_Speed
29 30 30 29 29 29 29 27 27 28 30 29 28 28 28 28 27 27 27 27 27 27 28 27 27 28 29 30 32 33 34 35 35 36 36 37 37 37 38 38 38 37 37 37 38 38 39 39 39 39 39 39 39 39 39 38 38 37 36 35 35 34 34 34 33 32 32 32 32 31 31 31 31 32 33 33 34 34 33 33 33 33 33 34 34 35
29 30 29 27 27 27 29 29 28 28 29 30 30 29 28 28 28 28 27 27 27 26 26 26 27 29 30 32 33 33 34 34 35 35 36 36 36 37 37 37 37 37 37 37 38 38 38 38 38 38 37 37 37 37 37 37 36 35 34 33 32 32 33 33 33 33 33 33 33 33 33 33 34 34 34 34 34 34 34 34 34 34 34 35 35 36
29 29 28 26 25 26 28 30 30 29 29 29 30 29 29 29 28 27 26 26 26 26 26 27 29 30 32 33 33 33 33 33 34 35 35 36 36 37 37 37 37 37 37 38 38 38 38 37 37 36 36 36 36 36 35 35 34 32 32 32 31 31 32 33 34 34 34 35 35 36 36 36 36 36 36 36 35 35 36 36 35 35 35 36 36 37
26 26 27 27 27 27 29 30 30 30 29 29 29 29 28 27 26 25 25 26 27 27 27 28 29 30 31 31 31 31 32 33 34 35 36 36 37 37 37 37 37 37 38 38 38 38 37 36 36 35 35 35 35 35 34 33 32 31 31 31 32 32 33 34 35 35 36 37 37 37 37 38 38 38 38 37 37 37 37 37 37 36 37 37 37 38
24 25 27 28 29 29 29 29 29 30 29 28 28 27 26 25 24 24 25 26 27 27 28 29 29 30 30 31 31 32 32 33 35 36 36 36 37 36 36 36 37 37 38 38 37 37 36 36 35 35 35 36 35 35 33 32 31 31 32 33 33 34 35 36 37 37 38 38 39 39 39 39 39 39 39 39 39 38 38 38 38 38 38 38 38 39
25 26 28 29 29 29 30 30 29 29 27 25 24 23 23 23 23 24 24 26 27 27 29 29 30 30 30 31 31 32 33 34 35 36 36 36 36 36 36 36 36 37 37 37 37 36 36 35 35 35 36 36 35 33 32 31 32 33 35 36 37 38 38 39 39 39 40 40 40 40 40 39 39 39 39 40 40 40 39 39 38 38 38 39 39 39
27 28 28 29 30 30 30 29 28 26 23 21 20 21 23 23 24 24 25 27 28 29 29 30 30 30 30 31 32 32 33 34 34 34 34 34 34 34 34 35 35 36 36 36 36 36 35 35 36 36 36 35 33 31 31 32 34 36 38 39 40 40 40 40 40 40 40 40 39 39 39 39 39 39 39 39 39 39 39 39 39 39 39 39 39 39
28 29 29 29 30 30 28 25 22 20 19 18 19 21 25 26 26 27 29 29 29 29 29 30 31 31 31 32 32 32 33 32 32 32 32 32 32 32 33 34 35 35 36 36 35 35 35 35 35 35 34 32 32 32 34 36 38 40 41 41 41 40 40 40 39 39 38 38 38 38 38 38 38 38 38 38 38 38 38 39 39 39 39 40 39 38
27 28 30 30 28 26 23 19 16 16 18 20 21 22 24 26 28 30 30 30 29 29 30 31 32 32 32 32 31 31 31 31 30 30 31 31 32 32 33 34 34 35 35 35 34 34 33 32 31 31 32 33 34 36 38 40 41 41 41 41 40 39 38 38 37 37 36 36 36 36 36 36 36 36 36 36 37 37 37 38 38 39 39 39 38 37
27 27 28 28 24 18 15 15 17 19 21 23 23 23 23 24 26 28 30 30 30 30 30 30 31 32 32 31 30 29 29 29 30 31 31 32 33 33 33 33 34 34 33 32 32 31 30 30 31 32 34 36 38 39 40 41 41 40 40 39 38 37 37 36 35 35 35 34 34 34 34 34 34 35 35 35 35 36 36 37 38 39 39 38 37 35
27 27 24 19 15 13 14 17 21 23 24 24 25 25 25 25 25 26 27 29 31 32 30 30 29 29 29 29 29 28 28 29 30 30 30 31 31 31 31 31 31 31 30 29 29 29 30 32 34 35 37 38 39 39 39 39 38 38 37 37 36 36 35 35 35 34 34 34 34 34 34 34 34 34 34 35 35 35 36 37 38 39 39 38 36 35
24 21 15 12 13 16 19 22 24 24 24 25 25 26 27 28 28 27 26 27 29 30 30 29 28 27 27 28 28 28 28 27 28 28 28 28 27 27 26 27 27 27 27 27 28 29 31 33 34 36 36 37 37 37 36 36 36 36 36 36 35 35 35 35 34 34 34 34 34 34 34 34 35 35 35 35 35 36 37 38 39 39 38 37 35 34
18 13 12 14 17 20 22 23 24 25 25 25 23 23 25 28 30 29 28 28 28 28 27 27 27 27 28 28 27 27 27 26 26 26 25 23 22 22 22 24 25 26 26 27 28 29 31 32 33 34 34 34 34 34 34 35 35 35 35 35 35 35 35 35 35 35 35 35 35 35 35 36 36 36 35 35 35 36 36 37 37 36 35 34 33 32
12 13 15 17 19 21 22 23 23 23 24 25 25 26 28 30 30 29 27 26 26 26 25 25 26 28 29 28 27 26 26 26 26 25 24 23 23 24 25 25 27 28 28 28 29 30 30 31 31 32 32 32 32 33 33 33 34 34 35 35 35 35 35 35 35 35 35 36 36 37 37 36 34 33 33 32 33 33 33 33 33 33 32 31 30 31
13 15 14 15 17 21 23 24 24 24 26 27 28 29 30 30 28 26 24 22 23 25 26 26 27 29 29 28 26 26 25 25 25 25 25 26 27 28 28 28 29 29 28 28 28 29 30 30 30 31 31 32 32 32 33 33 34 34 35 35 35 36 36 36 36 36 36 36 36 35 34 33 32 32 32 32 32 32 32 32 32 31 31 30 30 30
17 17 14 13 17 22 24 25 25 26 28 29 29 29 28 26 25 23 20 19 21 24 25 24 23 23 24 27 26 24 23 23 24 24 26 27 29 29 29 28 28 27 26 26 27 29 30 30 30 30 31 31 32 32 33 33 34 34 35 35 36 36 36 36 36 36 36 36 35 34 33 32 32 32 33 34 34 34 33 33 32 32 32 31 31 31
21 20 19 17 19 23 26 27 27 27 28 28 28 28 26 23 21 19 18 19 21 23 22 18 12 9 13 23 26 24 22 22 23 25 26 28 30 30 28 26 25 25 25 27 28 30 30 29 29 30 30 30 31 32 33 34 34 35 35 36 36 36 36 36 36 37 37 37 36 35 34 33 33 33 33 34 34 35 34 34 33 33 33 33 33 33
22 22 22 21 21 23 26 26 27 27 28 28 27 26 24 21 19 19 21 24 24 22 20 16 11 8 7 8 18 26 24 23 24 26 27 28 30 29 26 23 23 24 27 28 30 30 29 29 29 30 31 31 32 33 34 35 35 36 36 36 36 35 35 36 36 37 37 36 36 35 35 34 33 33 33 33 34 34 34 34 34 34 34 34 34 34
24 24 23 22 23 25 26 26 26 26 26 25 23 21 18 18 20 23 24 25 24 22 20 15 12 11 12 15 22 27 26 26 26 26 26 26 27 27 23 22 23 26 28 30 29 29 28 29 30 31 31 32 33 34 35 35 35 35 35 35 35 35 35 36 36 36 36 36 36 36 35 34 33 33 33 33 33 33 33 34 34 34 34 34 34 34
25 25 25 24 25 25 25 26 26 26 25 23 21 19 18 21 24 26 26 25 24 23 22 18 16 17 20 23 27 29 28 27 26 25 25 25 25 24 23 23 24 26 28 28 28 28 28 30 31 31 31 32 33 33 33 33 34 34 34 34 35 35 36 36 36 36 36 36 36 36 35 34 34 33 33 33 33 33 33 33 33 33 33 33 34 34
26 26 26 26 25 24 24 26 27 25 24 22 21 21 22 24 25 26 25 23 22 21 20 18 18 20 24 26 28 30 29 28 25 23 21 21 22 23 25 25 25 26 28 29 29 28 29 30 31 31 31 30 30 31 32 33 33 34 35 35 35 36 36 36 36 36 36 36 36 35 35 34 34 33 33 33 33 33 32 32 32 32 33 33 34 35
26 27 28 28 27 26 26 26 26 25 23 23 22 23 23 24 24 23 23 22 21 21 22 21 23 26 28 28 30 31 29 26 23 21 19 13 17 25 27 26 25 26 26 27 27 27 27 27 27 27 28 29 30 31 32 33 34 35 35 36 36 36 36 36 36 36 36 36 35 35 34 34 33 33 33 33 33 32 32 32 32 33 33 33 34 35
27 28 28 28 27 27 26 25 24 24 25 25 27 27 25 24 23 21 22 22 22 24 25 26 28 29 29 29 29 28 26 23 21 21 19 11 15 24 28 26 24 24 25 26 26 25 27 27 28 28 29 30 31 32 33 34 35 35 36 36 36 36 36 36 36 35 35 35 35 35 34 34 33 33 33 33 33 33 32 32 33 33 33 34 35 36
26 27 26 26 25 25 24 23 25 27 29 29 29 28 28 27 27 26 25 25 25 25 26 28 28 27 28 28 27 25 23 21 20 19 17 12 14 21 27 25 23 23 25 27 27 27 28 28 29 29 29 30 31 32 33 34 34 35 35 35 35 35 35 35 35 35 35 35 35 35 34 34 34 34 34 33 33 33 33 33 33 33 34 34 35 36
26 26 26 26 27 28 29 30 31 32 31 30 30 30 30 30 29 29 28 26 25 24 24 25 22 20 23 25 24 23 23 21 20 19 18 15 17 23 26 25 23 23 25 27 28 27 28 28 29 29 30 30 31 32 32 33 34 34 35 35 35 35 35 35 35 35 35 35 35 35 35 35 35 35 35 34 34 34 34 33 33 34 34 34 35 36
25 25 27 28 30 31 32 32 32 32 32 31 30 30 30 29 28 27 25 23 22 21 20 16 13 14 19 21 21 21 21 21 20 20 20 17 18 21 25 24 23 23 25 27 28 27 27 29 30 30 30 30 30 31 31 32 33 33 34 34 34 34 34 34 34 35 35 35 35 35 35 35 35 35 35 35 35 35 34 34 34 34 34 34 35 35
24 26 28 29 30 30 31 31 31 31 31 30 30 29 29 29 27 24 21 20 20 20 17 11 10 12 14 15 17 19 22 22 21 21 21 20 17 17 21 23 24 23 25 27 27 28 28 28 29 30 30 30 30 30 30 30 31 31 32 32 32 33 33 34 34 35 35 35 35 36 36 36 36 36 36 36 36 36 35 35 34 34 34 34 33 33
24 26 27 28 29 29 30 30 30 30 29 29 29 28 27 26 24 20 19 21 21 20 17 12 10 10 9 8 14 22 23 22 21 21 20 19 15 14 21 24 25 24 24 25 27 29 28 27 27 28 28 28 27 27 27 27 27 28 29 30 32 33 33 34 35 35 35 35 35 36 36 36 36 36 36 36 36 36 35 35 34 33 33 32 32 31
25 26 27 27 28 28 29 29 28 28 28 27 27 26 25 24 21 20 21 22 22 20 17 14 12 10 10 12 18 23 22 22 21 20 20 18 15 17 23 24 24 24 24 23 24 26 25 25 24 24 24 24 25 25 25 26 27 28 29 31 32 33 33 33 34 34 34 34 34 34 35 35 35 35 35 35 35 35 34 34 33 32 31 30 30 30
27 27 27 27 27 27 27 27 27 26 25 25 25 24 23 22 21 20 22 22 20 19 17 16 15 14 13 14 14 14 14 19 21 21 21 17 15 17 23 23 23 23 22 18 14 14 17 21 22 23 22 24 25 26 27 27 28 29 29 29 30 30 30 31 31 31 32 32 32 33 33 34 34 34 34 34 34 34 33 33 33 32 30 30 30 30
27 27 27 26 26 26 26 25 25 24 23 23 23 22 21 20 20 20 21 20 19 19 19 18 18 18 16 10 7 5 6 18 23 24 23 19 16 18 22 21 21 23 22 16 9 5 8 12 19 25 24 25 26 27 27 27 27 27 27 27 27 27 27 27 28 29 30 31 31 32 33 33 33 33 34 33 33 33 33 33 32 32 31 30 29 29
26 26 26 26 25 25 24 23 23 23 22 22 21 21 20 20 20 20 20 20 20 20 20 20 20 20 20 13 9 8 9 21 26 26 25 21 19 21 22 21 21 22 23 21 15 8 7 5 15 26 27 27 27 27 27 26 26 26 25 25 24 24 26 26 27 29 30 30 31 31 32 32 32 32 32 33 33 33 33 33 32 31 31 29 27 27
26 25 25 25 24 24 23 22 22 22 22 21 21 22 21 21 21 21 20 21 21 21 21 21 21 20 20 18 16 16 19 24 27 27 25 22 19 20 22 22 21 22 23 23 21 17 12 9 14 23 28 28 27 26 26 26 26 25 24 23 22 23 26 27 27 28 29 29 30 30 30 30 31 31 31 32 32 32 32 32 32 31 30 29 27 26
25 25 24 24 23 23 23 22 22 22 22 22 22 22 22 22 22 22 21 21 22 22 21 21 21 21 20 18 18 19 23 26 27 27 26 23 20 20 23 22 21 20 20 18 20 20 17 17 17 17 20 26 28 26 25 25 24 23 23 23 23 25 27 27 27 27 27 28 28 28 29 29 29 30 30 30 31 31 31 31 31 31 31 30 28 26
24 24 23 23 22 22 22 22 22 22 22 22 22 22 23 23 23 23 23 23 23 23 23 23 23 23 22 20 18 19 23 28 29 29 27 25 22 21 23 22 21 20 18 16 15 13 10 16 19 17 12 17 22 26 26 25 24 24 24 24 25 26 27 26 26 26 27 28 28 28 28 28 29 29 29 29 29 29 30 30 30 31 31 31 30 28
23 22 22 22 22 22 22 23 23 23 23 23 23 23 24 24 24 25 25 25 25 25 25 25 25 25 25 24 22 22 26 29 31 31 29 27 25 23 22 23 24 23 19 17 15 11 9 10 15 18 15 11 13 20 25 27 26 25 25 25 25 25 25 26 26 27 27 27 27 28 28 28 29 29 29 30 30 30 30 31 31 31 32 32 32 31
21 21 22 22 22 22 22 23 23 23 23 23 24 25 25 25 26 26 26 27 27 27 27 26 26 26 26 27 27 28 29 31 32 32 32 32 30 27 23 24 25 24 20 18 17 15 13 10 11 13 12 9 8 12 21 27 28 27 27 26 25 24 25 26 27 27 27 26 26 27 27 28 28 28 29 30 30 30 30 31 31 31 32 32 33 33
21 21 22 22 22 22 22 23 23 24 24 25 25 26 26 27 27 27 27 27 27 27 27 27 27 27 28 28 30 31 32 33 34 35 36 34 32 30 26 25 25 24 22 21 20 18 13 11 11 11 10 9 11 17 23 25 25 26 27 27 25 24 25 26 27 26 26 26 26 27 27 27 27 28 28 29 28 27 27 28 29 29 29 30 31 32
20 21 22 22 23 23 23 23 24 24 25 25 26 26 27 27 27 27 26 26 26 26 26 27 27 27 28 29 30 31 31 32 33 34 34 33 32 30 28 25 24 24 24 23 22 19 16 12 9 9 10 9 12 19 25 24 24 24 26 27 27 25 24 24 24 25 25 25 26 26 26 26 27 27 26 26 26 25 24 25 26 25 25 25 26 27
20 21 22 22 23 23 23 24 25 25 26 27 27 27 26 26 26 26 26 26 25 25 25 25 26 26 26 26 27 28 29 30 31 31 31 31 31 30 28 25 24 24 23 22 21 19 18 15 14 14 13 11 10 14 20 22 24 25 24 21 20 23 25 25 25 25 26 26 25 25 25 25 25 25 25 25 24 24 24 24 24 23 23 22 22 21
20 21 22 23 24 24 24 25 26 26 26 26 26 26 25 25 25 25 25 25 25 25 24 25 25 25 25 26 26 26 27 27 27 27 28 29 30 29 28 26 25 23 22 21 20 19 19 18 18 19 18 17 16 17 19 22 24 25 24 18 18 23 27 27 25 25 24 24 24 24 24 24 24 24 24 24 24 25 25 24 24 23 23 22 21 20
21 21 23 24 24 25 25 26 26 26 26 25 25 25 25 24 24 25 25 25 25 25 25 25 25 25 25 25 24 24 24 24 24 25 26 27 27 27 26 25 24 23 21 20 20 21 21 20 19 19 19 19 17 14 14 21 25 25 22 21 22 25 26 26 25 24 23 23 24 24 23 23 23 23 24 24 24 25 25 24 23 23 22 21 21 21
22 22 23 24 25 25 26 26 25 25 25 24 24 24 24 24 24 24 24 24 25 25 25 25 25 24 23 23 24 24 23 23 23 24 24 24 23 22 22 22 22 22 21 20 20 20 21 21 20 20 20 20 18 15 12 18 22 24 23 23 22 18 12 18 25 27 26 25 25 25 25 24 23 23 24 24 24 24 23 22 22 21 21 21 21 21
22 23 24 24 25 25 25 25 25 24 25 24 24 25 25 24 24 24 24 24 24 25 25 25 24 23 21 21 22 23 24 24 23 22 22 21 20 19 19 20 21 22 21 20 19 19 20 20 20 20 20 19 18 17 16 17 19 21 23 24 22 16 11 15 22 26 26 26 26 25 25 25 24 24 24 23 23 22 21 20 19 19 18 18 19 20
22 23 24 24 24 24 24 24 24 25 24 24 24 24 25 25 24 24 23 23 24 25 25 23 21 19 18 19 21 23 24 23 23 22 20 20 20 20 20 21 21 21 21 20 20 19 18 18 19 21 20 19 19 18 17 17 18 20 22 24 23 22 22 24 24 22 22 23 24 26 26 26 25 23 20 20 20 20 20 19 18 16 15 15 15 17
22 23 24 24 24 24 24 24 24 24 24 25 25 25 25 25 24 24 23 23 23 23 23 22 20 16 14 17 20 22 22 22 22 21 21 20 21 22 22 21 20 20 20 21 21 21 20 20 20 20 20 18 18 18 18 18 17 17 20 23 23 22 22 23 22 22 21 21 22 24 27 27 23 19 16 16 17 18 19 18 16 15 14 13 12 13
22 23 23 24 24 24 24 24 24 24 24 25 25 25 25 24 24 24 24 23 22 22 22 21 19 17 16 17 18 18 17 18 20 22 22 22 22 22 22 22 22 21 21 21 21 21 22 22 22 21 18 14 12 14 17 18 17 16 17 20 21 20 20 21 22 23 23 22 22 23 25 24 20 17 16 16 16 16 17 17 17 16 16 14 13 11
22 23 23 23 23 24 24 24 24 24 24 25 25 25 25 24 24 23 23 23 22 22 21 20 19 18 18 18 19 18 18 17 18 20 22 22 22 22 22 23 23 23 22 22 21 20 21 21 21 21 19 15 11 10 13 17 18 17 18 19 19 18 17 19 22 24 24 23 24 24 24 20 17 15 15 14 14 14 15 17 17 18 18 18 16 14
22 22 23 23 23 23 23 24 24 24 24 25 25 26 26 25 24 23 22 22 22 21 20 19 18 17 16 17 18 19 19 19 19 19 20 21 21 22 22 23 23 23 23 23 22 21 20 20 18 16 15 16 15 14 14 17 18 19 20 19 18 17 16 19 21 23 24 24 25 25 23 20 17 16 15 11 9 10 14 16 17 19 20 21 20 18
22 22 22 22 22 23 23 23 24 23 24 24 25 25 26 26 24 23 22 22 21 20 19 19 18 16 15 16 17 18 18 18 18 19 19 20 20 20 21 22 22 21 21 20 20 19 19 18 16 14 12 11 12 14 14 16 18 19 19 19 18 18 17 18 21 23 24 23 24 24 23 21 20 18 16 11 8 8 11 14 16 19 21 22 22 20
23 22 22 22 22 23 23 23 23 23 23 24 24 24 25 24 24 24 23 22 21 20 19 19 18 16 16 16 17 18 18 17 17 17 19 20 20 19 19 19 19 18 15 13 13 14 13 11 10 11 12 12 11 11 13 15 16 17 16 18 20 20 19 19 21 23 24 23 22 22 21 21 20 19 17 13 9 7 8 10 14 18 21 23 23 22
Wind_Direction
299 300 301 301 301 300 300 301 301 301 301 300 300 300 300 299 298 298 297 296 294 292 290 288 287 286 286 287 288 289 290 291 291 292 292 293 293 293 293 292 291 291 290 290 290 290 290 290 290 290 290 289 288 287 286 285 284 284 284 284 285 285 286 286 285 283 281 280 278 277 277 277 276 275 274 272 272 272 273 274 276 276 275 274 274 273
299 300 300 300 300 301 301 302 302 301 300 300 300 300 300 299 299 299 298 296 294 292 290 288 287 287 287 287 288 288 289 290 290 291 292 292 292 292 292 291 291 291 291 291 291 291 291 290 290 289 289 288 287 286 285 284 284 285 286 286 287 288 288 288 287 287 286 286 285 284 284 283 282 280 279 277 277 276 276 277 277 276 275 274 273 272
300 300 301 302 302 302 302 302 301 300 299 298 299 299 299 299 299 298 297 297 295 292 290 288 288 288 287 287 287 287 288 289 290 291 292 292 293 293 292 292 291 291 291 291 292 291 291 290 289 289 288 287 286 285 285 285 286 287 288 287 287 288 287 286 286 287 287 287 286 286 285 284 283 282 282 282 282 281 280 279 277 276 274 274 273 271
298 300 302 304 304 301 300 300 300 300 299 297 297 297 297 297 297 296 295 294 294 292 290 288 288 288 288 287 286 287 288 289 291 292 293 293 293 293 292 292 291 291 291 292 292 291 291 290 289 288 287 286 286 286 286 287 288 288 288 288 288 287 286 285 285 285 286 285 285 285 284 284 283 282 281 281 282 282 280 279 277 275 274 273 272 271
298 300 303 304 302 300 298 298 298 298 298 296 296 296 296 295 295 294 293 294 293 292 292 291 290 288 288 288 288 289 290 291 293 293 294 294 293 292 291 291 291 291 291 291 291 291 290 289 288 287 286 286 286 287 287 288 289 290 290 290 289 288 287 287 286 286 285 285 285 284 283 283 282 281 280 279 278 278 278 277 275 274 273 272 271 270
300 300 301 299 298 297 297 297 297 297 296 295 295 295 296 295 295 293 292 295 295 294 294 293 292 291 290 290 291 292 293 294 294 294 293 293 292 291 290 289 289 290 291 291 291 290 289 288 287 286 286 286 286 287 288 290 291 292 292 292 291 290 289 288 287 287 286 285 284 283 282 281 280 279 278 277 275 275 274 274 273 272 271 270 269 268
300 298 297 295 294 294 294 294 294 294 295 296 297 298 298 298 297 295 294 295 296 296 295 295 294 294 294 294 295 295 295 295 294 293 292 291 290 289 288 288 289 289 290 290 290 289 288 287 287 286 285 286 287 289 291 292 292 292 292 291 290 288 288 287 287 286 285 284 283 282 280 279 278 277 276 275 274 273 272 271 271 270 269 268 268 266
297 296 294 293 293 293 292 291 291 292 296 299 300 301 301 301 300 299 299 298 298 298 298 299 298 298 297 297 297 296 295 294 293 292 291 290 289 288 288 288 289 289 289 289 289 289 288 287 287 287 287 290 291 292 292 292 291 291 290 289 288 287 286 286 285 284 283 282 281 280 279 278 277 275 274 273 272 271 270 269 268 268 267 267 266 265
293 293 293 292 291 291 293 293 295 298 301 300 298 298 299 302 303 303 302 302 301 302 302 302 302 300 299 298 297 295 294 292 291 291 291 290 289 289 288 289 289 289 289 289 289 289 289 288 289 291 292 293 293 292 291 291 290 289 288 288 287 286 286 285 284 283 283 282 281 280 279 278 276 275 273 272 271 270 269 268 267 266 266 265 265 263
289 289 290 291 291 291 297 302 304 304 303 300 297 296 296 299 303 305 305 304 305 305 304 303 302 300 299 298 297 295 294 292 291 291 291 290 289 289 289 289 289 289 289 288 289 290 291 292 293 294 293 292 291 290 290 289 288 287 287 286 286 286 285 285 284 284 283 282 281 280 279 278 277 275 274 273 271 270 268 267 266 265 265 264 263 260
291 289 288 292 299 305 306 305 304 304 304 303 301 300 299 300 303 306 307 307 307 306 305 302 300 298 298 298 298 297 296 294 293 291 290 288 288 287 287 287 287 287 286 287 288 290 291 292 292 291 291 290 289 288 288 287 287 286 286 286 285 285 285 285 285 284 284 283 282 281 279 278 277 276 274 272 271 269 267 266 265 265 265 264 262 259
290 291 294 304 312 312 309 306 306 306 307 306 306 305 304 305 306 307 306 305 305 304 303 301 299 297 297 298 299 298 297 295 293 291 290 288 286 286 286 285 285 285 286 286 287 288 288 289 289 289 289 288 288 287 287 287 286 286 286 286 285 285 285 285 285 284 283 282 281 280 279 278 277 275 273 272 270 269 268 267 266 266 266 264 262 259
289 298 310 313 311 309 308 308 308 309 308 308 307 307 307 307 307 305 302 300 299 300 300 301 300 299 299 299 298 298 297 295 293 292 290 288 288 288 287 287 287 287 287 286 286 286 287 288 289 288 288 287 287 286 286 286 285 285 285 285 285 285 285 285 284 284 283 282 281 280 280 279 277 276 274 274 273 272 272 271 270 269 267 264 261 258
304 314 315 311 309 308 308 309 309 308 307 307 306 305 305 305 304 302 299 296 296 298 301 302 301 301 301 300 298 297 296 296 295 295 294 293 293 293 293 291 289 288 287 287 286 287 288 289 289 288 287 286 286 285 284 284 283 284 284 284 285 285 285 285 284 284 283 282 281 280 279 278 278 278 279 278 278 278 277 276 274 272 268 264 260 258
320 318 313 309 308 308 308 308 308 307 306 306 305 304 303 301 300 298 295 294 298 302 306 305 303 301 300 299 299 298 298 298 297 297 296 295 295 295 294 291 289 287 287 286 286 287 289 289 288 287 286 285 284 283 283 283 283 283 284 284 284 285 285 285 284 283 282 282 281 281 280 280 281 282 282 282 281 281 280 278 276 274 270 266 263 261
318 315 311 308 307 307 307 307 307 306 305 304 303 302 299 297 295 294 294 298 304 308 308 307 304 301 300 300 300 300 300 299 298 297 297 296 295 294 293 290 287 286 286 286 287 289 290 289 287 285 284 283 283 283 283 283 284 284 284 284 284 284 285 285 284 284 284 284 285 286 287 286 285 284 284 283 283 282 280 279 277 276 274 271 269 267
314 311 308 307 306 305 306 306 305 304 303 302 300 298 294 292 292 295 300 305 308 308 306 304 300 297 299 302 302 303 304 303 300 298 297 295 295 295 293 289 286 286 288 289 289 290 289 288 286 284 283 282 283 284 285 285 285 285 285 285 285 285 285 285 285 285 286 287 289 289 289 288 286 285 283 282 282 281 280 279 278 277 275 274 272 271
309 307 306 304 304 304 305 305 304 303 301 299 297 294 291 290 293 300 305 306 305 304 301 299 295 292 295 298 302 304 306 305 302 299 297 294 294 293 292 289 288 289 290 291 290 289 287 284 284 284 283 284 286 287 287 287 287 286 286 286 285 285 285 285 286 287 288 289 289 289 288 287 286 284 283 281 280 280 279 278 277 276 275 274 272 271
305 304 303 302 302 302 302 301 301 300 298 296 294 292 292 296 301 305 305 303 300 298 296 294 292 292 293 294 299 303 306 306 302 298 294 292 291 291 291 292 292 291 291 290 289 288 285 283 282 282 283 285 286 287 287 287 287 286 286 285 285 285 286 287 288 288 288 288 288 288 287 286 285 284 282 281 279 278 277 277 276 275 274 273 271 270
302 301 300 299 299 299 298 297 296 295 294 292 293 295 299 303 305 304 302 299 297 294 292 291 290 292 295 296 299 302 304 304 299 294 291 289 289 291 294 296 295 292 291 289 288 287 286 285 284 283 284 285 286 286 287 286 286 286 286 287 287 287 287 288 288 287 287 287 287 287 286 285 284 283 282 280 279 278 277 276 276 275 273 272 271 270
299 297 296 296 295 293 291 291 291 290 290 293 298 302 304 305 303 302 300 299 297 294 293 292 292 294 297 297 298 299 301 299 295 290 288 289 291 294 297 298 295 292 291 290 290 289 287 286 285 285 286 286 286 286 287 287 287 287 288 288 288 288 287 287 287 287 286 286 286 285 285 284 283 282 281 280 279 278 278 277 276 275 274 273 272 271
294 293 293 291 289 286 285 285 287 291 295 301 304 305 303 303 302 301 301 300 299 297 296 295 294 294 295 294 294 295 296 293 288 287 290 291 293 295 298 299 296 292 289 289 289 289 288 288 286 285 286 287 287 288 288 288 288 287 287 287 287 287 287 287 286 286 286 286 285 285 284 283 282 281 280 279 278 278 277 276 276 275 274 273 272 271
290 289 289 288 286 284 284 287 293 300 305 306 305 303 301 300 300 300 301 300 299 298 297 295 294 293 292 291 292 292 292 289 287 288 291 289 292 296 299 299 296 292 289 290 291 292 292 291 290 289 288 288 287 287 287 287 287 287 287 286 286 287 287 287 287 286 286 286 285 284 283 282 281 280 279 278 277 276 275 275 275 274 273 272 271 271
290 289 288 289 290 293 297 301 305 307 307 306 304 302 301 301 300 299 299 298 297 295 294 294 293 292 292 293 293 293 294 293 294 293 293 289 290 294 298 299 296 292 291 292 294 295 295 293 291 290 288 287 287 286 286 286 286 286 286 286 286 286 287 287 286 286 285 285 284 283 282 282 281 280 278 277 276 275 275 274 274 274 273 273 273 273
293 293 294 297 301 303 305 305 305 305 305 305 304 304 304 303 302 300 298 296 295 294 293 294 293 292 295 297 297 297 298 299 298 296 293 291 291 293 297 298 297 294 294 295 296 296 295 293 292 290 289 287 286 286 285 284 284 284 285 285 285 286 286 286 285 285 284 284 283 282 282 281 281 280 279 278 278 277 276 276 275 274 274 275 275 275
297 299 301 303 304 304 304 304 303 303 304 304 304 304 304 304 303 301 298 297 296 296 295 293 291 293 298 299 299 299 301 302 301 297 293 292 292 293 296 298 297 295 295 296 297 297 295 294 293 292 290 289 287 285 283 283 282 283 283 284 285 285 285 285 284 284 284 284 284 283 283 282 282 281 280 280 279 278 278 277 276 275 275 276 276 277
303 304 304 304 304 304 304 304 304 304 304 303 303 303 303 304 303 301 299 299 300 300 297 293 291 295 299 299 299 301 303 304 303 299 294 292 291 292 296 299 300 298 297 297 297 297 295 293 292 292 290 289 287 284 282 281 281 282 283 284 285 285 285 286 286 285 285 285 285 284 283 283 282 281 280 279 279 278 277 276 276 275 275 275 275 275
308 307 306 306 305 305 304 304 304 304 303 303 302 303 303 303 302 300 299 300 300 299 296 293 293 296 298 298 301 303 304 303 302 301 299 296 292 292 297 301 302 301 299 298 298 297 294 292 290 289 288 288 286 285 284 283 284 285 286 287 287 287 287 286 286 286 285 285 284 283 282 281 280 279 278 277 276 276 275 274 274 273 273 273 273 272
311 309 308 306 305 305 305 304 303 302 302 302 303 303 303 302 299 296 296 298 297 296 295 295 295 296 298 301 302 302 302 302 302 305 306 302 296 294 298 301 302 302 302 301 300 298 296 293 291 290 289 291 291 291 291 291 291 291 289 288 287 286 286 286 286 285 284 284 283 282 282 281 280 279 278 277 276 274 273 272 272 272 272 271 270 269
313 311 309 307 306 305 304 303 302 301 301 302 303 303 303 300 295 292 292 293 293 293 295 298 299 299 300 302 301 300 300 303 307 310 311 306 298 296 300 301 301 302 304 304 302 299 297 297 297 297 295 296 297 296 296 295 294 292 290 288 286 286 285 286 286 285 285 285 285 285 285 284 283 282 281 280 278 277 275 274 272 272 271 270 268 267
313 312 310 308 307 306 305 304 304 303 303 304 304 304 302 299 295 292 291 292 292 293 295 297 298 299 300 300 299 297 300 305 308 310 310 304 296 296 300 301 301 301 303 303 302 299 301 301 302 303 301 300 299 297 296 296 295 293 290 289 288 287 287 287 288 289 289 289 289 288 288 286 285 284 282 281 279 278 276 275 273 272 270 269 267 265
312 311 310 308 307 307 307 307 307 307 307 307 307 306 304 301 299 297 295 294 293 293 294 295 296 296 296 294 292 291 295 301 305 307 307 302 296 295 299 299 299 300 301 299 296 295 299 303 305 305 304 302 300 299 298 297 296 295 292 291 289 288 290 290 291 292 292 291 290 289 287 286 284 282 281 280 278 277 275 273 271 270 268 266 264 261
311 310 309 308 308 309 309 310 310 310 311 309 309 309 307 305 303 301 298 296 294 293 293 293 294 295 294 293 290 289 292 297 301 304 305 302 297 296 299 299 299 299 299 297 294 291 290 291 299 302 303 302 301 301 300 300 299 297 295 293 291 291 293 293 293 292 292 291 290 288 286 285 283 281 280 278 277 275 274 272 269 267 265 263 261 259
311 310 310 310 311 312 312 313 313 313 313 312 311 311 310 308 306 304 300 298 296 294 292 292 292 293 295 295 293 292 293 296 300 303 304 301 298 297 299 299 299 299 299 296 294 293 290 291 294 299 302 303 303 302 302 302 301 300 298 296 295 294 294 294 293 291 289 289 288 285 284 283 282 280 280 278 276 274 272 270 268 265 262 260 259 258
311 312 313 314 315 315 315 316 316 315 315 314 313 312 311 309 307 305 303 301 299 296 293 292 290 290 292 293 293 294 295 298 300 302 303 300 297 296 298 298 299 299 298 295 295 294 290 293 295 297 300 302 303 304 304 304 304 303 301 298 296 294 293 292 290 289 288 287 285 283 282 281 280 279 278 277 276 274 272 270 268 265 262 260 257 256
313 314 315 317 317 317 317 317 317 317 316 315 314 313 311 310 308 306 304 303 300 298 296 293 291 288 287 287 287 288 292 295 298 300 300 297 295 294 295 296 297 297 296 294 294 293 291 293 297 299 299 298 301 304 306 307 307 305 302 300 297 294 292 290 288 287 286 284 283 282 281 280 278 277 277 277 276 275 273 271 269 266 264 261 258 255
315 316 317 319 319 318 318 318 318 318 317 316 315 313 312 309 308 306 304 303 301 300 298 295 293 290 287 285 284 285 287 291 294 295 295 295 293 291 290 292 294 294 292 292 294 295 294 294 296 298 297 295 297 304 307 309 308 306 303 301 298 296 293 291 289 286 284 281 280 280 279 278 277 276 275 276 275 274 272 270 268 266 264 262 259 256
318 318 318 319 319 319 318 318 318 317 317 316 314 313 311 309 307 305 304 302 301 299 299 298 296 293 292 289 287 287 288 289 291 293 294 294 292 289 288 289 290 291 289 289 290 292 293 294 297 298 298 297 300 303 305 307 307 305 304 302 300 297 294 293 291 288 285 282 281 280 280 279 277 275 275 274 273 271 269 268 266 264 262 260 259 257
319 318 318 319 319 319 318 317 317 316 315 314 312 311 310 309 307 305 304 303 301 300 300 299 297 296 295 293 292 291 291 291 292 293 294 293 291 289 288 287 288 289 289 288 288 288 289 290 294 298 302 303 303 304 304 303 303 303 304 305 304 302 298 296 294 291 287 284 283 283 282 280 279 277 275 274 271 268 265 264 263 262 259 257 256 255
318 318 317 318 318 317 317 316 315 315 314 313 312 311 311 310 309 308 307 307 306 305 303 301 299 298 297 296 295 294 294 294 294 294 294 293 292 290 287 287 287 289 290 289 288 288 289 291 295 297 299 299 300 302 302 301 301 302 305 306 306 306 304 302 298 295 291 287 285 283 283 283 282 279 277 274 271 268 264 262 262 260 257 253 250 249
318 317 317 317 317 317 316 315 314 314 314 313 312 313 313 312 312 312 312 312 311 310 309 308 308 306 303 301 299 298 297 297 296 296 296 296 295 293 289 288 288 289 291 293 294 295 295 296 296 296 296 296 296 297 297 297 299 301 303 302 302 302 304 303 300 298 296 293 291 288 286 286 285 284 281 278 275 272 269 266 263 260 257 251 245 242
318 316 316 316 316 316 315 315 314 315 315 315 314 314 314 314 314 314 314 314 314 314 314 314 314 312 309 306 305 304 302 301 301 301 300 300 299 297 295 293 294 295 297 299 299 299 297 295 294 293 293 294 295 295 295 296 298 300 300 299 300 303 306 307 306 305 303 301 299 297 294 292 290 289 287 284 282 280 277 272 267 262 257 251 246 241
317 316 315 315 315 315 315 315 315 316 317 316 316 315 315 314 314 314 314 314 315 315 316 316 314 312 309 308 309 310 310 309 308 307 306 306 305 305 304 304 304 304 303 302 300 298 297 295 293 292 291 292 292 290 291 295 298 299 299 300 301 304 307 309 310 310 309 307 305 304 302 299 298 296 295 293 291 290 287 281 274 267 260 254 248 243
315 315 314 315 315 316 317 317 317 317 318 317 316 315 315 315 315 315 314 314 314 315 316 316 314 312 309 309 312 314 315 315 315 313 312 313 314 315 313 311 309 306 304 300 298 298 300 299 296 293 291 290 289 288 288 291 295 298 299 301 301 299 293 298 303 306 307 308 308 308 308 307 306 305 303 302 301 300 297 293 287 280 272 263 254 247
315 315 316 316 317 317 317 317 317 317 317 317 316 315 316 316 317 316 314 314 314 315 316 315 314 313 312 313 315 317 318 318 318 318 319 320 321 321 318 315 312 309 306 302 298 297 296 296 295 294 293 291 288 285 285 287 291 294 298 302 303 301 297 297 299 300 302 305 308 311 313 314 313 310 308 307 307 308 308 306 303 298 292 282 267 254
318 317 317 317 317 317 317 317 317 318 317 317 316 316 317 318 318 317 316 314 314 314 314 314 313 311 311 314 316 318 318 319 321 322 323 323 323 323 322 320 317 313 310 305 301 297 292 289 288 290 292 292 290 286 283 284 287 291 297 303 306 306 305 305 304 304 304 305 308 313 318 320 319 315 312 311 312 313 316 318 318 317 315 308 293 274
318 318 317 317 317 317 317 317 318 318 318 317 317 317 318 318 318 318 317 316 315 314 314 314 313 311 310 312 314 315 316 318 320 323 324 325 325 325 326 325 322 319 314 310 306 301 297 292 288 285 283 284 287 288 287 287 288 291 296 302 306 307 308 309 310 312 314 313 313 317 322 323 322 320 318 317 317 317 320 324 329 332 333 330 322 306
317 317 316 316 316 316 316 317 318 318 318 317 317 318 319 319 319 318 318 317 316 315 316 316 314 312 312 313 314 314 316 317 319 321 323 325 326 327 327 327 326 324 322 319 314 310 307 305 299 289 278 269 270 282 287 292 295 298 300 304 306 306 306 310 314 318 321 321 322 324 325 324 322 320 319 319 320 322 324 326 331 337 341 342 338 330
316 315 315 315 315 315 316 317 318 317 317 316 317 318 319 319 319 318 317 317 316 316 316 315 314 313 313 315 315 316 318 319 319 320 322 324 326 327 328 329 329 328 328 327 327 326 324 323 319 307 287 269 264 270 281 292 300 305 307 309 309 308 309 313 317 321 324 326 328 331 332 330 327 324 321 319 318 321 325 327 331 337 342 344 343 339
316 315 315 315 315 315 315 316 316 316 315 315 316 317 318 319 319 318 318 318 317 316 315 314 313 313 313 314 316 318 319 319 320 321 322 324 326 327 329 330 331 332 332 334 336 337 336 335 334 330 319 294 275 272 281 295 304 310 313 316 317 317 316 317 320 323 326 328 331 334 336 336 336 336 333 329 322 322 327 330 333 336 340 342 343 341
317 316 315 315 315 315 315 315 315 314 314 314 314 315 316 317 318 319 319 319 319 317 314 314 313 314 315 316 317 319 319 319 319 320 322 324 325 326 328 330 332 333 334 336 340 341 342 339 336 335 333 329 318 305 301 304 308 312 316 322 325 326 323 322 323 326 328 331 333 336 339 340 341 342 340 337 331 326 330 332 333 334 337 340 341 341
Height
711 708 707 706 704 702 699 699 699 697 694 692 692 691 690 688 687 686 685 684 683 681 680 679 677 676 675 674 672 671 670 668 666 665 663 662 660 658 657 655 653 651 650 648 647 646 645 643 642 641 639 638 637 636 635 633 632 631 630 628 627 626 624 623 622 622 622 621 621 620 620 619 619 619 619 618 618 617 617 616 615 615 615 615 615 615
710 707 706 705 703 701 697 696 697 696 693 691 690 689 688 686 685 684 683 682 681 680 678 676 675 674 672 671 669 668 666 665 663 662 661 659 657 656 654 652 651 649 647 646 644 643 642 641 639 638 637 635 634 633 632 630 629 628 627 626 624 623 622 621 620 619 618 617 617 617 616 615 615 615 615 614 614 613 613 612 612 612 612 612 612 611
708 705 703 703 702 700 697 695 694 694 693 690 688 687 686 684 683 682 681 680 678 677 676 675 673 671 669 667 666 665 663 662 661 659 657 656 654 653 651 649 648 646 645 643 642 640 639 638 637 635 634 632 631 630 628 627 626 625 624 623 622 621 621 620 618 617 616 616 615 614 613 612 612 612 611 611 611 610 610 609 609 608 608 608 608 608
708 705 702 701 700 699 697 694 692 691 691 689 687 685 684 683 681 680 679 677 676 675 673 672 670 668 666 665 663 662 661 659 658 656 655 653 651 650 648 647 645 644 642 641 639 638 636 635 633 632 631 629 628 627 625 624 623 623 622 621 620 619 618 617 617 616 615 614 613 612 611 610 610 609 608 607 607 607 606 606 605 605 605 605 605 605
707 705 702 701 698 696 695 693 691 690 688 686 685 684 682 681 680 678 676 675 674 672 671 669 668 666 664 662 660 659 658 656 655 653 652 650 649 647 646 644 643 641 640 638 637 635 633 632 631 629 628 627 625 623 622 621 620 620 619 618 617 616 615 615 614 613 612 611 610 609 608 607 607 606 605 605 604 604 603 602 602 602 602 602 601 601
706 705 703 701 698 695 693 691 690 688 686 685 683 682 681 680 678 676 675 673 672 670 668 666 665 663 662 660 658 656 655 654 652 651 649 648 646 645 643 642 640 639 637 635 634 632 631 629 628 627 625 624 622 621 619 618 617 617 616 615 614 613 612 612 611 610 609 608 607 606 605 605 604 603 603 602 601 601 600 600 599 599 598 598 598 598
704 703 702 700 696 694 691 689 688 687 685 683 681 680 679 678 676 675 673 671 670 668 666 664 662 661 660 658 656 655 653 651 650 648 647 645 644 642 641 639 637 636 634 632 631 630 628 627 625 624 622 621 619 618 617 616 615 615 614 613 612 611 610 609 608 607 606 605 604 603 602 602 601 600 600 599 598 597 597 596 596 595 595 595 594 594
702 700 699 698 695 691 689 688 687 686 684 683 681 679 677 675 674 672 671 669 668 666 664 661 660 658 657 656 654 652 651 649 647 645 644 642 641 639 638 637 635 633 632 630 628 627 626 624 623 621 619 618 617 616 615 614 613 612 611 610 609 608 607 606 605 604 603 602 601 600 599 599 598 597 597 596 595 594 593 593 592 592 592 591 591 590
702 698 696 695 693 690 687 686 685 685 684 682 680 678 675 673 671 669 667 666 665 664 662 660 657 656 654 653 652 650 648 646 645 643 641 639 638 636 635 633 632 630 629 627 626 625 623 622 620 619 617 616 615 614 613 612 611 610 608 607 606 605 604 603 602 601 600 599 598 597 596 595 595 594 593 592 592 591 590 589 589 588 588 588 587 587
700 697 694 691 690 689 687 685 684 683 683 681 679 677 675 672 669 666 663 662 662 662 661 659 656 654 651 650 649 648 646 643 642 640 639 637 636 634 632 631 630 628 627 625 624 622 621 619 618 617 616 614 613 612 611 609 608 607 605 604 603 602 601 600 599 598 597 596 595 594 593 592 591 590 589 589 588 587 587 586 585 585 584 584 584 584
697 694 692 690 689 688 687 686 683 682 681 679 677 676 674 672 670 666 662 659 658 659 658 657 655 653 650 647 646 645 643 641 639 637 636 635 633 632 630 629 627 626 624 623 622 620 619 617 616 615 614 612 611 609 608 607 605 604 602 601 600 598 597 597 596 595 594 592 592 591 590 589 588 587 586 585 584 584 583 582 582 581 581 580 580 581
695 692 691 690 689 687 686 684 682 681 679 677 675 672 671 670 669 667 664 660 658 656 655 654 652 651 649 646 644 641 640 638 636 634 633 631 630 629 628 626 625 623 622 621 619 618 617 616 614 612 611 609 608 607 605 604 602 601 599 598 597 596 595 594 593 592 591 589 588 587 587 585 584 583 582 582 581 580 579 578 578 577 577 577 577 577
693 692 691 690 688 686 685 682 680 678 677 676 674 671 669 668 667 667 664 661 658 656 653 651 649 647 647 645 643 641 638 636 634 632 631 629 628 627 625 623 622 621 619 618 617 615 614 613 611 610 608 607 605 604 602 601 600 598 597 595 594 593 592 591 590 589 587 586 585 584 583 582 581 580 579 578 577 577 576 575 574 574 574 573 573 573
693 692 691 689 687 685 683 681 679 677 676 675 674 672 669 667 666 665 662 659 656 654 652 650 647 645 644 643 641 640 637 635 632 631 629 628 627 626 624 622 620 618 617 616 614 612 611 610 608 607 605 604 602 601 600 598 597 595 594 593 591 590 589 588 587 585 584 583 582 581 580 579 577 576 576 575 574 573 573 572 572 571 571 571 571 571
693 692 690 687 685 683 682 681 679 677 675 674 673 671 669 666 665 663 660 657 654 652 651 649 646 643 641 641 640 638 636 634 631 629 627 626 625 624 622 620 617 616 615 613 611 610 609 608 606 604 602 601 600 598 597 596 594 592 591 590 588 587 586 584 583 582 581 580 578 577 576 575 574 573 572 572 571 571 570 569 569 568 568 567 567 567
693 691 689 686 684 682 681 681 679 676 674 673 671 670 667 665 662 660 658 656 653 651 650 647 644 640 637 637 637 637 635 632 630 628 626 623 622 621 621 618 615 613 612 611 609 607 606 605 603 601 600 598 597 595 594 593 591 590 588 587 585 584 582 581 580 579 577 576 575 574 573 572 572 571 570 569 568 567 567 567 566 565 565 565 564 564
693 691 689 686 684 681 680 680 678 676 674 672 670 668 666 663 661 659 657 655 653 651 649 647 644 639 635 632 633 634 634 632 629 626 624 621 619 618 618 616 613 611 609 608 607 605 603 602 600 599 597 595 594 593 591 590 588 587 585 584 582 581 579 578 577 575 574 573 572 571 570 570 568 567 567 566 565 564 564 563 563 562 562 562 561 561
692 690 688 686 683 681 680 678 677 675 673 670 667 665 663 661 660 658 656 655 653 651 648 646 643 640 636 631 629 630 632 631 628 625 622 618 616 615 615 614 612 609 607 605 604 602 601 599 597 596 594 593 592 590 588 587 585 584 582 581 579 578 577 575 574 572 571 570 569 568 567 566 565 564 564 563 562 562 561 560 560 559 559 558 558 557
690 689 687 685 683 681 679 677 676 673 671 668 665 663 661 659 658 657 656 654 652 650 647 644 641 638 635 632 629 628 630 629 627 623 620 616 613 612 612 611 609 607 605 602 601 599 598 596 594 593 592 590 589 587 586 584 582 581 579 578 576 575 574 572 571 570 568 567 566 565 564 563 562 561 561 560 559 559 558 557 557 556 556 555 554 554
688 687 686 685 682 680 677 675 673 671 669 666 664 662 660 658 657 656 654 652 650 647 645 642 639 636 634 631 628 627 628 628 626 622 617 613 611 609 610 609 607 605 602 599 598 597 595 593 591 590 589 587 586 584 583 581 579 578 576 575 573 572 571 570 568 567 566 564 563 562 561 560 559 558 557 557 556 556 555 554 553 553 552 552 551 551
687 685 684 683 681 679 675 672 670 669 667 665 663 661 659 657 655 653 651 649 647 645 643 641 637 635 633 630 627 626 626 626 624 619 615 611 608 607 607 607 605 602 599 596 595 594 593 591 589 587 586 585 583 582 580 578 577 575 573 572 571 569 568 567 565 564 563 562 560 559 558 557 556 555 554 554 553 552 552 551 550 550 549 548 548 547
686 684 681 681 679 677 673 670 668 667 666 665 663 661 658 656 653 651 649 647 646 643 641 639 636 634 632 629 627 625 625 624 622 618 614 610 606 604 605 605 603 600 596 594 592 591 590 588 587 585 583 582 580 579 577 576 574 572 571 569 568 566 565 564 562 561 560 558 557 556 555 554 553 552 551 551 550 549 548 548 547 547 546 545 545 544
685 682 680 678 676 674 671 669 667 666 665 664 662 660 658 656 653 650 648 646 644 642 640 637 634 632 630 628 625 623 622 622 620 618 614 610 605 602 602 602 601 597 594 592 590 589 587 586 584 582 581 579 578 576 574 573 571 569 568 566 565 563 562 560 559 557 556 555 554 552 552 551 550 549 548 547 547 546 545 544 544 543 542 542 541 540
682 680 678 676 674 672 671 669 667 666 664 663 661 659 657 655 653 650 648 646 643 641 638 635 632 629 627 625 623 621 620 620 619 617 614 609 604 601 601 600 598 595 592 590 589 587 585 583 581 579 578 576 575 573 572 570 568 566 565 563 562 560 559 557 556 554 553 552 551 549 548 547 546 545 545 544 543 542 542 541 540 540 539 538 538 537
680 678 676 675 673 672 670 668 667 665 663 661 659 657 655 653 651 649 646 644 642 640 637 634 630 627 624 623 621 619 618 618 617 616 613 608 603 600 599 598 597 593 589 587 587 585 583 580 578 576 575 573 571 570 568 567 565 563 562 560 558 557 556 554 552 551 550 548 547 546 545 544 543 542 541 540 539 539 538 537 537 536 536 535 534 533
679 677 676 674 672 671 669 667 666 664 662 660 658 656 654 651 649 646 644 642 641 638 636 632 629 626 623 621 619 617 616 616 615 614 612 608 602 598 597 597 596 592 588 585 584 583 581 577 575 573 572 570 568 566 565 563 562 560 558 557 556 554 552 551 549 548 547 545 544 543 542 540 539 538 537 537 536 535 534 534 533 533 532 532 531 530
677 676 674 672 671 669 667 665 664 662 660 659 657 655 653 650 648 645 643 641 640 638 635 632 628 624 621 619 617 615 614 614 613 612 610 607 602 598 595 595 593 591 587 584 582 581 579 575 572 570 568 566 564 563 561 560 558 557 556 554 552 551 549 548 546 545 543 542 541 540 538 537 536 535 534 533 532 532 531 530 530 529 529 528 527 527
676 674 672 671 669 667 665 663 661 660 658 656 655 653 652 650 647 644 641 640 639 637 634 631 627 624 620 617 616 614 613 612 611 610 608 606 602 598 594 593 592 590 587 582 579 577 576 573 570 567 565 563 561 560 558 557 556 554 553 551 550 548 547 545 543 542 541 539 538 537 535 534 532 532 530 530 529 528 527 527 526 526 525 525 524 523
673 672 670 668 667 665 663 661 659 658 656 655 653 651 650 649 646 644 641 640 638 636 633 630 627 624 621 617 614 612 611 610 609 608 607 605 601 597 594 592 591 588 586 581 577 573 572 570 568 565 563 561 559 557 556 555 553 552 550 548 547 545 543 542 540 539 537 536 534 533 532 530 529 528 527 526 525 524 523 523 523 522 522 521 520 519
671 669 667 666 664 662 661 659 657 655 654 652 651 650 648 647 645 643 641 639 637 635 632 629 626 624 621 617 614 610 608 607 607 607 606 603 599 595 593 592 590 588 586 582 576 570 566 565 565 564 562 559 557 556 554 552 551 549 547 545 543 542 540 539 537 536 534 533 531 530 528 527 525 524 523 522 521 520 519 519 519 519 518 517 516 515
669 667 665 663 662 660 658 656 655 653 652 650 649 648 646 645 644 642 640 638 636 634 631 628 626 623 621 618 615 610 606 605 605 606 605 602 598 594 592 591 588 587 586 584 578 571 564 560 559 560 560 558 556 553 552 551 549 547 545 542 541 539 537 536 535 533 531 530 528 527 525 524 522 521 519 518 517 517 516 516 516 515 515 513 512 512
667 666 664 662 660 658 656 655 653 651 650 649 647 646 645 643 642 640 639 637 635 633 631 628 625 623 621 619 616 612 607 604 604 604 604 602 597 593 592 590 587 585 584 583 581 576 568 561 556 556 556 555 553 552 550 548 547 545 542 541 538 536 535 534 532 531 529 527 525 524 522 521 519 517 516 515 514 513 512 512 512 512 511 510 509 507
666 664 662 660 658 657 655 653 652 650 649 647 646 644 643 642 640 639 637 636 634 632 630 627 624 622 619 617 614 611 608 605 604 603 602 600 597 592 590 589 587 584 582 581 579 577 572 565 559 555 553 552 551 550 548 546 545 543 541 539 537 534 532 531 530 528 526 524 522 520 519 517 516 514 512 511 510 509 508 508 508 508 507 507 505 504
665 663 661 659 657 655 654 652 651 649 647 646 644 643 641 640 638 637 635 634 632 631 629 627 624 621 618 615 612 609 606 604 603 602 601 599 596 592 589 587 585 583 581 578 576 574 571 566 562 557 552 549 547 547 546 544 542 541 539 537 535 533 531 529 527 526 523 522 519 517 515 513 512 510 509 507 506 505 504 504 503 503 503 502 502 501
663 661 659 658 656 654 652 651 649 648 646 645 643 641 640 638 637 635 633 632 630 629 627 625 623 621 618 615 611 607 604 602 601 601 600 598 595 592 589 586 584 582 580 577 574 572 568 564 561 558 554 549 545 544 543 542 541 539 537 535 533 531 529 527 525 523 521 519 516 514 512 510 508 507 505 504 502 502 501 500 499 499 499 498 498 497
662 660 658 657 655 653 651 650 648 646 645 643 641 640 638 637 635 633 632 630 628 627 625 623 621 619 617 614 612 608 604 601 600 599 598 596 594 591 588 585 583 582 579 576 573 570 567 563 559 557 555 550 545 542 540 540 539 537 535 533 531 529 527 525 523 521 518 516 513 511 509 507 505 503 501 500 499 497 497 496 495 495 494 494 493 493
661 660 658 656 655 653 651 649 647 645 643 642 640 638 637 635 633 631 629 627 626 624 622 620 618 616 614 612 610 607 604 601 599 597 596 594 593 590 587 584 582 580 579 576 572 569 567 562 559 555 553 550 547 542 539 537 536 534 532 530 529 527 524 522 520 518 516 513 511 508 506 504 502 500 498 496 495 494 493 492 491 490 490 489 489 489
661 659 657 656 654 652 650 648 646 644 643 641 639 637 635 633 631 629 627 625 623 622 620 617 615 613 611 609 607 605 602 600 597 595 594 592 591 589 586 583 581 579 577 575 572 570 567 563 559 555 552 548 546 544 541 538 535 532 529 528 526 524 522 519 517 516 513 511 508 506 503 501 499 497 495 493 492 491 489 488 487 486 486 485 485 484
661 659 657 655 653 651 650 647 646 644 642 640 638 636 634 632 629 627 625 623 621 619 617 615 613 610 608 606 604 602 600 598 596 593 592 591 589 587 585 582 579 577 575 574 572 570 567 564 560 556 552 549 545 543 541 538 536 532 528 526 523 521 519 517 515 513 511 508 506 503 501 498 496 494 492 490 488 487 486 484 483 482 482 481 481 480
661 659 656 655 653 651 649 647 645 643 641 639 637 635 632 630 628 625 623 622 619 617 615 613 611 608 606 604 602 600 598 596 594 592 590 588 587 585 583 581 578 576 574 572 571 569 566 563 560 557 555 551 547 543 540 537 535 532 529 526 522 518 516 515 513 511 508 506 503 501 498 495 493 491 489 487 485 484 482 481 479 478 478 478 477 477
661 658 656 654 652 650 648 646 644 642 640 638 635 633 631 629 627 624 622 619 617 615 613 611 609 606 604 602 600 598 596 594 592 590 588 586 585 583 581 579 577 575 573 571 569 567 565 563 560 557 554 552 548 545 541 537 535 532 530 527 522 518 515 512 510 508 506 503 501 498 496 493 491 488 486 484 482 480 478 477 476 475 474 474 474 473
661 658 656 654 651 649 647 645 643 641 639 637 635 632 630 628 626 623 621 618 616 613 611 609 607 604 601 598 597 595 594 592 590 588 586 585 583 581 580 578 576 574 572 570 568 566 564 562 560 557 554 551 548 545 540 537 534 532 530 527 523 518 514 510 507 506 504 501 498 496 494 491 488 486 483 481 479 477 475 474 473 472 471 470 470 470
660 658 656 653 651 649 646 644 642 640 638 636 634 632 629 627 625 623 620 618 615 612 610 608 606 603 600 597 594 592 591 590 588 587 585 583 582 580 578 577 576 574 572 570 567 564 562 560 558 556 553 551 548 545 541 537 533 531 528 526 523 520 515 509 505 503 502 499 497 494 492 489 487 484 481 478 476 474 472 471 469 468 468 467 467 466
660 657 655 653 650 648 646 644 641 639 637 635 633 630 628 626 624 622 620 617 614 612 610 607 605 602 599 597 593 591 589 587 586 585 583 582 580 579 578 576 574 572 571 569 566 563 560 558 556 554 552 550 548 545 541 537 533 530 527 524 522 520 517 512 507 503 501 497 495 492 490 487 485 482 479 477 474 472 470 468 467 466 465 464 463 463
659 656 654 652 650 647 645 643 641 639 637 634 632 630 627 625 623 622 619 617 614 611 609 607 604 602 599 596 593 590 587 585 584 583 582 580 579 578 577 575 573 571 569 567 565 563 560 557 554 552 550 548 546 543 540 537 533 529 526 523 521 518 515 511 507 504 501 497 494 491 488 486 484 481 478 476 473 471 469 467 465 464 463 462 461 461
658 656 654 651 649 647 645 643 640 638 636 633 631 629 627 624 622 621 618 616 613 611 608 607 604 602 599 596 592 590 587 584 582 581 580 579 577 576 575 573 572 570 568 566 563 561 559 557 554 551 548 547 544 541 538 536 533 529 525 522 519 516 513 509 506 503 500 497 494 491 487 485 483 481 478 475 472 470 468 466 465 463 462 461 460 459
658 656 653 651 649 646 644 642 640 637 635 632 630 628 626 624 622 619 617 615 613 610 608 606 604 602 599 596 593 591 588 585 582 580 579 577 576 574 573 571 570 568 566 564 562 559 557 554 552 550 548 546 543 539 536 533 532 529 526 522 519 516 512 508 504 501 499 496 493 490 487 485 482 480 477 475 472 469 467 465 463 462 461 459 458 457
657 655 653 651 648 646 643 641 639 637 635 632 629 627 625 623 621 619 617 614 612 610 607 605 603 601 598 596 593 591 589 586 583 581 579 577 575 573 572 570 568 566 564 562 559 557 554 552 549 548 547 545 543 539 535 532 530 528 525 522 519 516 512 508 504 501 498 495 492 490 487 485 483 480 477 475 472 469 466 464 462 461 460 458 457 456
657 655 653 650 648 646 643 641 639 637 634 631 628 626 623 622 620 619 616 614 612 609 607 605 602 600 597 595 593 591 588 586 584 582 580 577 575 573 571 569 567 564 562 559 557 554 552 549 547 546 544 543 542 539 536 532 530 527 525 522 519 516 512 508 504 500 497 495 492 490 487 485 483 481 478 475 472 469 466 464 462 460 458 457 456 454
656 654 652 650 648 645 643 641 638 636 634 631 628 626 623 621 619 617 616 613 611 609 607 605 602 600 597 595 592 590 588 586 584 582 580 578 576 574 571 569 567 564 561 558 555 552 550 547 545 543 542 542 540 539 536 533 530 527 524 522 518 515 512 508 504 501 498 495 492 490 487 485 482 480 478 476 472 469 467 464 461 459 457 456 454 453
655 653 651 649 647 645 643 640 638 636 633 631 628 625 623 620 618 616 614 612 610 608 606 604 602 600 597 595 592 590 588 587 584 582 580 578 576 574 572 570 568 566 563 560 557 554 552 548 545 542 540 540 540 539 537 534 531 527 524 521 518 515 512 508 504 501 498 496 493 490 488 485 482 480 478 476 473 470 467 464 462 459 457 455 453 451